Погода в Лодейном Поле

Россия / Санкт-Петербург и Ленинградская область     60°44′05″N   33°32′55″E
темп.,
°C
ветер,
м/с
пор.,
м/с
влажн.,
%
обл.,
%
осадки,
мм/ч
давл.,
гПа
погр.,
м
2 декабря, чт
чт200:00−11зсз259892 0.3 98997
03:00−12сз1410095 0.6 99073
06:00−15з1110093 0.2 99217
09:00−12зсз119892 0.3 99340
12:00−10з119692 0.1 99564
15:00−11ссв0098100 0.1 99513
18:00−12в119888 0.0 99610
21:00−15юв119973 0.0 9969
3 декабря, пт
пт300:00−17всв1110087 0.0 9969
03:00−18св2210090 0.0 99616
06:00−15всв2497100 0.0 99768
09:00−15всв269766 0.0 99793
12:00−12всв399457 0.0 998200
15:00−9всв41190100 0.0 998343
18:00−8всв51393100 0.4 997475
21:00−7всв51293100 1.1 997521
4 декабря, сб
сб400:00−7всв51293100 0.6 996556
03:00−7св51293100 1.3 996571
06:00−8св51293100 0.6 997568
09:00−9св5118993 0.9 999564
12:00−10св4108794 0.0 1002601
15:00−11св388885 0.0 1005455
18:00−15с219837 0.0 100833
21:00−17с1110076 0.0 101122
5 декабря, вс
вс500:00−17ссв229955 0.0 101432
03:00−19св1110060 0.0 101613
06:00−20всв1110075 0.0 101815
09:00−19всв239831 0.0 102149
12:00−16всв289326 0.0 1022281
15:00−16всв38939 0.0 1023276
18:00−18всв310915 0.0 1025246
21:00−18в3119033 0.0 1026276
6 декабря, пн
пн600:00−18в412915 0.0 1027325
03:00−17в41388100 0.0 1028390
06:00−15в51482100 0.0 1027468
09:00−13в51478100 0.0 1027484
12:00−12в51374100 0.0 1027524
15:00−11в51292100 0.2 1026454
18:00−11в41293100 0.4 1025488
21:00−10в41294100 1.3 1024519